Weather observations for the past three days for
Pensacola Naval Air Station
Imperial (Metric)
Date Time (cdt) Wind (mph) Vis. (mi.) Weather Sky Cond. Temperature (ºF) Relative Humidity Wind Chill (°F) Heat Index (°F) Pressure Precipitation (in)
Air Dwpt 6 hour altimeter (in) sea level (mb) 1 hr 3 hr 6 hr
Max. Min.
17 03:56 E 7 10.00 Fair CLR 84 75.9 77% 93 29.98 1015.4
17 02:56 E 9 10.00 Fair CLR 84.9 75 72% 93 29.98 1015.4
17 01:56 E 7 10.00 Fair CLR 82.9 75 77% 90 30 1015.9
16 23:56 E 8 10.00 Fair CLR 82.9 75 77% 90 30.01 1016.4
16 21:56 SE 9 10.00 Fair CLR 82.9 73 72% 89 30.02 1016.6
16 20:56 SE 9 10.00 Fair CLR 82.9 73 72% 89 30.01 1016.4
16 19:56 Calm 10.00 Mostly Cloudy FEW015 SCT060 BKN130 81 75 82% 87 30.02 1016.6
16 18:56 NE 6 10.00 Mostly Cloudy FEW012 SCT037 BKN130 82 75 86 79 79% 89 30.01 1016.4
16 17:56 NE 7 10.00 Mostly Cloudy SCT010 BKN120 BKN200 82.9 75 77% 90 30 1015.9
16 16:56 NE 5 10.00 Mostly Cloudy FEW015 SCT047 BKN100 BKN200 82 75.9 82% 89 29.98 1015.3
16 15:56 Calm 3.00 Light Rain FEW013 SCT060 OVC110 80.1 75 85% 85 30 1016.2 0.17 0.45
16 14:56 SE 8 7.00 Light Rain FEW020 BKN070 OVC110 79 73 82% 82 30.02 1016.8 0.06
16 13:56 SW 15 G 22 10.00 Overcast FEW020 BKN039 OVC090 82.9 75 77% 90 30.01 1016.4 0.22
16 12:56 S 9 10.00 Thunderstorm Light Rain SCT024CB BKN038 BKN100 OVC250 84.9 73.9 91.9 82.9 70% 92 30.02 1016.6 0.03 0.09
16 11:56 SW 12 G 28 10.00 Mostly Cloudy FEW017 SCT023 BKN037 BKN250 84.9 77 77% 95 30.01 1016.5
16 10:56 SE 7 10.00 Partly Cloudy SCT031 90 78.1 68% 105 30 1016.2
16 09:56 E 6 10.00 Thunderstorm FEW038 SCT090 82.9 77 82% 92 30.01 1016.2 0.05 0.06
16 08:56 S 16 G 26 10.00 Mostly Cloudy BKN023 BKN031 86 77 75% 97 29.99 1015.6 0.01
16 07:56 SE 8 9.00 Light Rain FEW022 FEW075 89.1 77 68% 102 29.98 1015.4
16 05:56 SE 9 10.00 A Few Clouds FEW021 87.1 75.9 70% 98 29.95 1014.4
16 03:56 SE 8 10.00 A Few Clouds FEW018 FEW030 86 75.9 72% 96 29.94 1013.9
16 01:56 SE 8 10.00 Partly Cloudy SCT017 86 77 75% 97 29.94 1013.8
16 00:56 SE 7 10.00 A Few Clouds FEW015 84.9 77 90 84.9 77% 95 29.94 1013.9
15 22:56 SE 7 10.00 Fair CLR 87.1 77 72% 99 29.95 1014.4
15 19:56 SE 8 10.00 Fair CLR 89.1 75 63% 99 29.92 1013.2
15 17:56 SE 10 10.00 A Few Clouds FEW080 91 75.9 61% 103 29.9 1012.5
15 16:56 S 8 10.00 Partly Cloudy SCT090 SCT250 93 75 56% 104 29.91 1013.0
15 15:56 S 9 10.00 Partly Cloudy FEW060 FEW100 SCT250 93.9 73.9 52% 104 29.92 1013.5
15 14:56 SE 9 10.00 Partly Cloudy FEW050 SCT100 96.1 71.1 44% 104 29.94 1013.9
15 13:56 SE 12 10.00 A Few Clouds FEW050 97 68 39% 102 29.95 1014.3
15 12:56 E 10 10.00 A Few Clouds FEW050 97 71.1 98.1 81 43% 105 29.96 1014.5
15 11:56 E 8 10.00 A Few Clouds FEW045 96.1 69.1 41% 102 29.96 1014.8
15 10:56 E 8 10.00 A Few Clouds FEW045 96.1 68 40% 101 29.96 1014.8
15 09:56 NE 10 10.00 Fair CLR 93.9 66.9 41% 98 29.97 1014.9
15 08:56 NE 8 10.00 Fair CLR 91.9 72 52% 100 29.96 1014.8
15 07:56 N 7 10.00 Fair CLR 87.8 0 0% 29.96 1014.5
15 06:56 N 3 10.00 Fair CLR 80.6 0 81 73.9 0% 29.94 1014.0
15 05:56 Calm 10.00 Fair CLR 75.2 0 0% 29.93 1013.6
15 02:56 Calm 9.00 Fair CLR 75.9 71.1 85% 76 29.9 1012.7
15 01:56 Calm 10.00 Fair CLR 78.1 73 85% 81 29.91 1013.1
15 00:56 N 3 10.00 Fair CLR 78.1 72 90 78.1 82% 80 29.93 1013.5
14 22:56 Calm 10.00 Fair CLR 80.1 73 79% 84 29.93 1013.6
14 21:56 Calm 10.00 A Few Clouds FEW060 82 73.9 77% 88 29.92 1013.5
14 20:56 Calm 10.00 Fair CLR 82.9 73 72% 89 29.91 1012.9
14 19:56 Calm 10.00 A Few Clouds FEW250 87.1 73 63% 95 29.9 1012.5
14 18:56 SW 5 10.00 A Few Clouds FEW250 90 73 96.1 90 58% 98 29.89 1012.1
14 17:56 SW 9 10.00 A Few Clouds FEW065 91 73 56% 100 29.88 1012.0
14 16:56 S 9 10.00 A Few Clouds FEW065 93.2 71.6 50% 101 29.88 0.0
14 15:56 S 9 10.00 A Few Clouds FEW060 93 72 50% 101 29.89 1012.2
14 14:56 S 12 10.00 A Few Clouds FEW060 95 71.1 46% 102 29.89 1012.2
14 13:56 S 9 10.00 Partly Cloudy SCT055 SCT080 95 71.1 46% 102 29.9 1012.5
14 12:56 SE 9 10.00 Partly Cloudy SCT055 SCT080 95 69.1 96.1 80.1 43% 101 29.91 1012.9
14 11:56 Vrbl 6 10.00 Partly Cloudy FEW055 SCT080 95 69.1 43% 101 29.93 1013.6
14 10:56 E 7 10.00 A Few Clouds FEW180 93.9 70 46% 100 29.94 1013.9
14 09:56 E 6 10.00 Fair CLR 91.9 72 52% 100 29.94 1014.1
14 08:56 NE 9 10.00 Fair CLR 91 72 54% 99 29.94 1014.0
14 07:56 NE 7 10.00 Fair CLR 86 70 59% 91 29.94 1013.9
14 06:56 N 6 10.00 A Few Clouds FEW070 80.1 66.9 80.1 75.9 64% 82 29.94 1013.9
14 05:56 N 5 10.00 A Few Clouds FEW070 75.9 66 72% 77 29.91 1012.8
14 04:56 N 3 10.00 Fair CLR 77 66 69% 79 29.9 1012.5
Date Time (cdt) Wind (mph) Vis. (mi.) Weather Sky Cond. Air Dwpt Max. Min. Relative Humidity Wind Chill (°F) Heat Index (°F) altimeter (in) sea level (mb) 1 hr 3 hr 6 hr
6 hour
Temperature (ºF) Pressure Precipitation (in)